STARLINK-1694 (46544 NORAD) Tracking and Keplerian Element Data

This shows tracking and keplerian element data for the satellite.

Feedback or suggestion? Click here.




ElementValue
Catalog46544
NameSTARLINK-1694
Epoch Orbit893
Epoch Day332.25002315
Epoch Year2020
RAAN188.125
Inclination52.9982
Eccentricity0.000138
Argument of Perigee55.2474
Mean Anonmoly336.8938
Mean Motion15.62856127
Decay Rate-0.00470941
L11 46544U 20070N 20332.25002315 -.00470941 00000-0 -54191-2 0 9999
L22 46544 52.9982 188.1250 0001380 55.2474 336.8938 15.62856127 8937

Live tracking and technical data element details for STARLINK-1694 (NORAD 46544). STARLINK-1694 can be tracked NOW for your location showing map with azimuth and elevation plus other details from your city location.

Track the satellite on the map from your city or location and see movement details for azimuth, elevation, latitude, longitude, range, height, and movement on the map or in text.







IsCatalogInMostPopularTable: catalog: 46544, numindb: 12
Update: records affected: 1



GetName: 46544 STARLINK-1694

Hit Count: updated at: Fri, 27 Nov 2020 14:49:56 GMT